Change the Weather History Date:

Saturday, November 23, 2013

  Actual Average Record
Temperature  
Mean Temperature 29 °F 35 °F  
Max Temperature 34 °F 49 °F 72 °F (1925)
Min Temperature 24 °F 21 °F 2 °F (1941)
Degree Days  
Heating Degree Days 36    
Moisture  
Dew Point 14 °F    
Average Humidity 59    
Maximum Humidity 75    
Minimum Humidity 40    
Precipitation  
Precipitation 0.00 in 0.01 in 0.30 in (2001)
Month to date precipitation 0.19 0.51  
Year to date precipitation 16.71 16.95  
Sea Level Pressure  
Sea Level Pressure 30.66 in    
Wind  
Wind Speed 8 mph (SSE)    
Max Wind Speed 17 mph    
Max Gust Speed -    
Visibility 10 miles    
Events      
T = Trace of Precipitation, MM = Missing Value Source: NWS Daily Summary

Daily Weather History Graph

Daily Weather History Graph

Search for Another Location

Airport or City:

Trip Planner

Search our weather history database for the weather conditions in past years. The results will help you decide how hot, cold, wet, or windy it might be!

Date:

Astronomy

Nov. 23, 2013 Rise Set
Actual Time 6:41 AM MST 4:29 PM MST
Civil Twilight 6:12 AM MST 4:58 PM MST
Nautical Twilight 5:39 AM MST 5:31 PM MST
Astronomical Twilight 5:07 AM MST 6:03 PM MST
Moon 9:58 PM MST (11/23) 11:00 AM MST (11/23)
Length of Visible Light 10h 45m
Length of Day
9h 47m
Waning Gibbous, 69% of the Moon is Illuminated
Nov 23
Waning Gibbous
Nov 25
Last Quarter
Dec 2
New
Dec 9
First Quarter
Dec 17
Full

Hourly Weather History & Observations

Time (MST) Temp. Windchill Dew Point Humidity Pressure Visibility Wind Dir Wind Speed Gust Speed Precip Events Conditions
12:53 AM 28.0 °F 20.0 °F 21.0 °F 75% 30.66 in 10.0 mi NNW 8.1 mph - N/A   Overcast
1:53 AM 28.0 °F 20.8 °F 19.0 °F 69% 30.65 in 10.0 mi North 6.9 mph - N/A   Overcast
2:53 AM 27.0 °F 23.0 °F 18.0 °F 69% 30.65 in 10.0 mi NNW 3.5 mph - N/A   Overcast
3:53 AM 26.1 °F 18.4 °F 18.0 °F 71% 30.67 in 10.0 mi North 6.9 mph - N/A   Overcast
4:53 AM 25.0 °F 17.1 °F 17.1 °F 72% 30.70 in 10.0 mi North 6.9 mph - N/A   Overcast
5:53 AM 24.1 °F 16.0 °F 17.1 °F 75% 30.71 in 10.0 mi North 6.9 mph - N/A   Overcast
6:53 AM 24.1 °F 17.0 °F 15.1 °F 69% 30.74 in 10.0 mi North 5.8 mph - N/A   Overcast
7:53 AM 24.1 °F 19.7 °F 14.0 °F 65% 30.75 in 10.0 mi North 3.5 mph - N/A   Overcast
8:53 AM 24.1 °F 17.0 °F 15.1 °F 69% 30.76 in 10.0 mi NE 5.8 mph - N/A   Overcast
9:53 AM 26.1 °F 20.5 °F 15.1 °F 63% 30.74 in 10.0 mi SE 4.6 mph - N/A   Mostly Cloudy
10:53 AM 28.0 °F 20.0 °F 14.0 °F 56% 30.73 in 10.0 mi SE 8.1 mph - N/A   Scattered Clouds
11:53 AM 30.9 °F 23.5 °F 14.0 °F 50% 30.68 in 10.0 mi South 8.1 mph - N/A   Overcast
12:53 PM 32.0 °F 23.6 °F 12.9 °F 45% 30.65 in 10.0 mi South 10.4 mph - N/A   Overcast
1:53 PM 33.1 °F 25.5 °F 10.9 °F 40% 30.63 in 10.0 mi SSE 9.2 mph - N/A   Overcast
2:53 PM 33.1 °F 24.4 °F 10.9 °F 40% 30.63 in 10.0 mi South 11.5 mph - N/A   Partly Cloudy
3:53 PM 30.9 °F 22.8 °F 10.9 °F 43% 30.63 in 10.0 mi SSE 9.2 mph - N/A   Clear
4:53 PM 26.1 °F 16.8 °F 12.0 °F 55% 30.64 in 10.0 mi SE 9.2 mph - N/A   Clear
5:53 PM 26.1 °F 16.2 °F 12.0 °F 55% 30.65 in 10.0 mi SSE 10.4 mph - N/A   Clear
6:53 PM 25.0 °F 15.5 °F 12.9 °F 60% 30.64 in 10.0 mi SSE 9.2 mph - N/A   Clear
7:53 PM 27.0 °F 17.3 °F 12.9 °F 56% 30.61 in 10.0 mi South 10.4 mph - N/A   Mostly Cloudy
8:53 PM 27.0 °F 16.1 °F 16.0 °F 63% 30.60 in 10.0 mi South 12.7 mph - N/A   Mostly Cloudy
9:53 PM 27.0 °F 16.1 °F 10.9 °F 51% 30.58 in 10.0 mi South 12.7 mph - N/A   Overcast
10:53 PM 26.1 °F 13.1 °F 9.0 °F 49% 30.57 in 10.0 mi South 17.3 mph - N/A   Overcast
11:53 PM 26.1 °F 13.1 °F 8.1 °F 47% 30.53 in 10.0 mi South 17.3 mph - N/A   Overcast